Location: ??????
(38.3184°N, 23.6932°E)
Time: 01:15:44
(UTC+00:00)

Aureole 2 - Pass Details

Date: 16 October 2021
Orbit: 365 x 885 km, 73.9° (Epoch: 04 December)

Event Time Altitude Azimuth Distance (km) Brightness Sun altitude
Rises 16:16:55 0° 344° (NNW) 2,220 8.0 -6.9°
Reaches altitude 10° 16:18:52 10° 348° (NNW) 1,381 7.0 -7.2°
Maximum altitude 16:21:49 64° 71° (ENE) 435 4.1 -7.8°
Drops below altitude 10° 16:25:00 10° 154° (SSE) 1,488 6.8 -8.4°
Sets 16:27:09 0° 157° (SSE) 2,416 7.9 -8.9°
